sat.trackr.live / text

‹ back to catalog

STARLINK-5405

NORAD 54863 · 2022-177AV

PAYLOAD ACTIVE UNKNOWN

§ Identity

Operator
Country
US
Launch date
2022-12-28
Launch site
AFETR
Launch vehicle
Mass (kg)
RCS (m²)

Purposes: comms

External: N2YO · Heavens-Above · Gunter

§ Orbital elements

Epoch: 2026-09-20T22:55:12.995328Z

Period
94.27 min
Inclination
43.0033°
Eccentricity
0.0001616
Mean motion
15.27576830 rev/d
Perigee alt
481.9 km
Apogee alt
484.2 km
Semi-major
6,861.2 km
B*
2.0563e-5
RAAN
98.8456°
Arg perigee
250.9930°
Mean anomaly
109.0747°
Rev number
20,695

§ Raw data

STARLINK-54051 54863U 22177AV  26263.95501152  .00000304  00000+0  20563-4 0  99982 54863  43.0033  98.8456 0001616 250.9930 109.0747 15.27576830206957

JSON: /api/v1/satellites/54863 · /tle

For live sub-satellite position, see the globe view (requires WebGL).

§ Visibility from observer

Set your observer location to see the next 7 days of passes ≥ 10°. The values pass through the URL so the page stays shareable.

No JS? Fill the form by hand. The geolocation button needs JavaScript.